Millville, NJ

12:48 AM EDT on July 27, 2017 (GMT -0400)
Millville Municipal

Weather History for KMIV - August, 2014

Change the Weather History Date:

Saturday, August 9, 2014

  Actual Average Record
Temperature  
Mean Temperature 70 °F -  
Max Temperature 84 °F 86 °F 96 °F (2001)
Min Temperature 55 °F 68 °F 53 °F (1964)
Cooling Degree Days 4    
Growing Degree Days 20 (Base 50)    
Moisture  
Dew Point 58 °F    
Average Humidity 68    
Maximum Humidity 93    
Minimum Humidity 41    
Precipitation  
Precipitation 0.00 in - - ()
Sea Level Pressure  
Sea Level Pressure 30.10 in    
Wind  
Wind Speed 1 mph (SW)    
Max Wind Speed 9 mph    
Max Gust Speed -    
Visibility 10 miles    
Events      
Averages and records for this station are not official NWS values.
T = Trace of Precipitation, MM = Missing Value Source: NWS Daily Summary

Daily Weather History Graph

Daily Weather History Graph

Search for Another Location

Airport or City:

Trip Planner

Search our weather history database for the weather conditions in past years. The results will help you decide how hot, cold, wet, or windy it might be!

Date:

Astronomy

Aug. 09, 2014 Rise Set
Actual Time 6:07 AM EDT 8:03 PM EDT
Civil Twilight 5:38 AM EDT 8:32 PM EDT
Nautical Twilight 5:02 AM EDT 9:08 PM EDT
Astronomical Twilight 4:24 AM EDT 9:46 PM EDT
Moon 7:03 PM EDT (8/9) 4:45 AM EDT (8/9)
Length of Visible Light 14h 54m
Length of Day
13h 56m
Waxing Gibbous, 98% of the Moon is Illuminated
Aug 9
Waxing Gibbous
Aug 10
Full
Aug 17
Last Quarter
Aug 25
New
Sep 2
First Quarter

Hourly Weather History & Observations

Time (EDT) Temp. Heat Index Dew Point Humidity Pressure Visibility Wind Dir Wind Speed Gust Speed Precip Events Conditions
1:54 AM 57.0 °F - 55.0 °F 93% 30.10 in 10.0 mi Calm Calm - N/A   Clear
2:54 AM 55.9 °F - 54.0 °F 93% 30.09 in 10.0 mi Calm Calm - N/A   Clear
3:54 AM 57.9 °F - 55.0 °F 90% 30.10 in 10.0 mi Calm Calm - N/A   Clear
4:54 AM 57.0 °F - 55.0 °F 93% 30.10 in 10.0 mi Calm Calm - N/A   Clear
5:54 AM 57.0 °F - 55.0 °F 93% 30.11 in 10.0 mi Calm Calm - 0.00 in   Clear
6:54 AM 60.1 °F - 57.0 °F 90% 30.12 in 10.0 mi Calm Calm - N/A   Clear
7:54 AM 64.9 °F - 59.0 °F 81% 30.13 in 10.0 mi Calm Calm - N/A   Clear
8:54 AM 72.0 °F - 61.0 °F 68% 30.12 in 10.0 mi Calm Calm - N/A   Clear
9:54 AM 75.9 °F - 59.0 °F 56% 30.12 in 10.0 mi Calm Calm - N/A   Clear
10:54 AM 79.0 °F - 57.9 °F 48% 30.12 in 10.0 mi Calm Calm - N/A   Clear
11:54 AM 80.1 °F 80.2 °F 55.9 °F 43% 30.12 in 10.0 mi Calm Calm - N/A   Clear
1:54 PM 82.0 °F 82.0 °F 57.9 °F 44% 30.11 in 10.0 mi West 6.9 mph - N/A   Mostly Cloudy
2:54 PM 82.0 °F 81.7 °F 57.0 °F 42% 30.10 in 10.0 mi West 9.2 mph - N/A   Clear
3:54 PM 84.0 °F 83.5 °F 57.9 °F 41% 30.08 in 10.0 mi WSW 8.1 mph - N/A   Clear
4:54 PM 82.0 °F 81.7 °F 57.0 °F 42% 30.07 in 10.0 mi West 5.8 mph - N/A   Clear
5:54 PM 81.0 °F 81.0 °F 57.0 °F 44% 30.07 in 10.0 mi SW 5.8 mph - N/A   Clear
6:54 PM 79.0 °F - 59.0 °F 50% 30.07 in 10.0 mi Variable 4.6 mph - N/A   Scattered Clouds
7:54 PM 75.0 °F - 59.0 °F 57% 30.08 in 10.0 mi Calm Calm - N/A   Clear
8:54 PM 69.1 °F - 62.1 °F 78% 30.09 in 10.0 mi East 4.6 mph - N/A   Mostly Cloudy
9:54 PM 68.0 °F - 61.0 °F 78% 30.12 in 10.0 mi Calm Calm - N/A   Mostly Cloudy
10:54 PM 66.9 °F - 62.1 °F 84% 30.12 in 10.0 mi SW 3.5 mph - N/A   Scattered Clouds
11:54 PM 66.9 °F - 62.1 °F 84% 30.13 in 10.0 mi SSE 3.5 mph - N/A   Clear